User: anonymous   Login
Location: Unspecified
(0.0000°N, 0.0000°E)
Time: 13:34:32
(UTC+00:00)
Language:

Orbcomm D8 (FM36) - Orbit

View from above orbital plane
View from above orbital plane
View from above satellite
View from above satellite

Ground track
Ground track

The orbit data is extracted from the following two-line orbital elements,

1 25984U 99065E   18110.57361897 -.00000115 +00000-0 +93654-5 0  9994
2 25984 045.0372 156.8421 0005431 237.4898 122.5424 14.32602813959308
Epoch (UTC): 20 April 2018 13:46:00
Eccentricity: 0.0005431
inclination: 45.0372°
perigee height: 779 km
apogee height: 787 km
right ascension of ascending node: 156.8421°
argument of perigee: 237.4898°
revolutions per day: 14.32602813
mean anomaly at epoch: 122.5424°
orbit number at epoch: 95930

The dashed part of the orbit path shows where the satellite is in the earth's shadow,  

DLR